Location: Malvern Link
(52.1333°N, 2.3000°W)
Time: 00:19:53
(UTC+00:00)

QB50P2 - Pass Details

Date: 01 July 2022
Orbit: 590 x 605 km, 97.9° (Epoch: 15 August)

Event Time Altitude Azimuth Distance (km) Brightness Sun altitude
Rises 00:04:34 0° 33° (NNE) 2,862 ? -14.7°
Reaches altitude 10° 00:09:07 10° 79° (E) 1,954 ? -14.7°
Maximum altitude 00:09:33 10° 85° (E) 1,945 ? -14.7°
Drops below altitude 10° 00:09:59 10° 91° (E) 1,953 ? -14.7°
Enters shadow 00:12:30 - 121° (ESE) 2,310 ? -14.7°
